This is the latest recevied weather packets stored in our database for station/object AI5BL. If no packets are shown the sender has not sent any weather packets the latest 10 day(s).
| Time | Temp. | Humidity | Pressure | Rain* | Wind** | Luminosity | Snow |
|---|---|---|---|---|---|---|---|
| 1777856494 | 16.67° C | 77% | 1019.8 hPa | 0 mm | - | 0 W/m² | - |
| 1777856191 | 17.22° C | 74% | 1019.9 hPa | 0 mm | - | 0 W/m² | - |
| 1777855887 | 17.22° C | 72% | 1019.9 hPa | 0 mm | - | 0 W/m² | - |
| 1777855586 | 17.78° C | 70% | 1019.8 hPa | 0 mm | - | 1 W/m² | - |
| 1777855283 | 17.78° C | 69% | 1019.7 hPa | 0 mm | - | 1 W/m² | - |
| 1777854980 | 18.33° C | 68% | 1019.9 hPa | 0 mm | - | 2 W/m² | - |
| 1777854676 | 18.33° C | 63% | 1019.7 hPa | 0 mm | - | 4 W/m² | - |
| 1777854373 | 18.89° C | 61% | 1019.7 hPa | 0 mm | - | 6 W/m² | - |
| 1777854071 | 18.89° C | 59% | 1019.7 hPa | 0 mm | - | 8 W/m² | - |
| 1777853768 | 18.89° C | 62% | 1019.8 hPa | 0 mm | - | 11 W/m² | - |
| 1777853463 | 19.44° C | 60% | 1019.7 hPa | 0 mm | - | 13 W/m² | - |
| 1777853161 | 19.44° C | 58% | 1019.6 hPa | 0 mm | - | 15 W/m² | - |
| 1777852858 | 20° C | 58% | 1019.6 hPa | 0 mm | - | 16 W/m² | - |
| 1777852557 | 20° C | 56% | 1019.7 hPa | 0 mm | - | 18 W/m² | - |
| 1777852253 | 20° C | 57% | 1019.8 hPa | 0 mm | - | 20 W/m² | - |
| 1777851951 | 20.56° C | 53% | 1019.7 hPa | 0 mm | - | 21 W/m² | - |
| 1777851648 | 20.56° C | 53% | 1019.8 hPa | 0 mm | - | 23 W/m² | - |
| 1777851344 | 20.56° C | 53% | 1019.9 hPa | 0 mm | - | 24 W/m² | - |
| 1777851041 | 20.56° C | 54% | 1019.9 hPa | 0 mm | - | 29 W/m² | - |
| 1777850738 | 21.11° C | 51% | 1020 hPa | 0 mm | - | 26 W/m² | - |
| 1777850435 | 21.11° C | 53% | 1020 hPa | 0 mm | - | 28 W/m² | - |
| 1777850133 | 21.11° C | 59% | 1020 hPa | 0 mm | - | 28 W/m² | - |
| 1777849829 | 21.67° C | 50% | 1019.8 hPa | 0 mm | - | 32 W/m² | - |
| 1777849526 | 21.67° C | 49% | 1019.9 hPa | 0 mm | - | 30 W/m² | - |
| 1777849224 | 21.67° C | 47% | 1019.8 hPa | 0 mm | - | 31 W/m² | - |
* Rain latest hour (hover to see other rain measurements)
** Current wind speed in m/s (hover to see current wind gust speed)